GW0374 Weather Reports


Display with metric or nautical units.
time (UTC)temp
F
wind
direction
speed
MPH
gust
MPH
rain 1hr
in
rain 24hr
in
rain mn
in
humidity
%
barometer
mb
20260503210004 67 71 1.0 4.0 0.00 0.00 0.00 88 1015.6
20260503205503 67 75 0.0 4.0 0.00 0.00 0.00 88 1015.6
20260503205003 67 76 0.0 4.0 0.00 0.00 0.00 88 1015.6
20260503204503 67 40 1.0 5.0 0.00 0.00 0.00 88 1015.5
20260503204004 67 27 1.0 5.0 0.00 0.00 0.00 88 1015.4
20260503203503 67 30 1.0 5.0 0.00 0.00 0.00 88 1015.4
20260503203003 67 35 1.0 5.0 0.00 0.00 0.00 88 1015.3
20260503202503 67 49 0.0 5.0 0.00 0.00 0.00 88 1015.3
20260503202003 67 96 0.0 3.0 0.00 0.00 0.00 88 1015.3
20260503201503 67 43 1.0 6.0 0.00 0.00 0.00 88 1015.2
20260503201003 67 32 1.0 6.0 0.00 0.00 0.00 88 1015.2
20260503200525 67 59 1.0 6.0 0.00 0.00 0.00 88 1015.1
20260503200004 67 81 1.0 6.0 0.00 0.00 0.00 88 1014.8
20260503195503 67 64 1.0 5.0 0.00 0.00 0.00 87 1014.7
20260503195024 67 44 1.0 5.0 0.00 0.00 0.00 88 1014.4
20260503194503 67 37 2.0 7.0 0.00 0.00 0.00 87 1014.3
20260503194003 67 44 2.0 7.0 0.00 0.00 0.00 87 1014.2
20260503193503 68 49 1.0 6.0 0.00 0.00 0.00 88 1014.2
20260503193024 68 40 1.0 7.0 0.00 0.00 0.00 88 1014.1
20260503192525 68 73 1.0 7.0 0.00 0.00 0.00 88 1014.1
20260503192003 68 95 1.0 5.0 0.00 0.00 0.00 87 1014.1
20260503191503 68 84 1.0 4.0 0.00 0.00 0.00 88 1013.9
20260503191003 68 79 1.0 5.0 0.00 0.00 0.00 88 1013.8
20260503190503 68 80 1.0 5.0 0.00 0.00 0.00 87 1013.8
20260503190004 68 92 1.0 8.0 0.00 0.00 0.00 87 1013.7
20260503185503 69 112 2.0 10.0 0.00 0.00 0.00 87 1013.6
20260503185003 69 95 2.0 10.0 0.00 0.00 0.00 87 1013.5
20260503184504 69 69 2.0 7.0 0.00 0.00 0.00 87 1013.4
20260503184004 70 106 2.0 6.0 0.00 0.00 0.00 87 1013.4
20260503183503 70 121 2.0 7.0 0.00 0.00 0.00 87 1013.2
20260503183003 70 111 2.0 7.0 0.00 0.00 0.00 85 1013.1
20260503182503 71 106 2.0 8.0 0.00 0.00 0.00 85 1013.0
20260503182003 71 93 4.0 11.0 0.00 0.00 0.00 85 1012.9
20260503181504 72 69 4.0 11.0 0.00 0.00 0.00 83 1012.9
20260503181004 73 48 3.0 9.0 0.00 0.00 0.00 80 1012.8
20260503180524 73 71 2.0 9.0 0.00 0.00 0.00 77 1012.6
20260503180003 74 104 2.0 8.0 0.00 0.00 0.00 77 1012.6
20260503175503 74 112 3.0 8.0 0.00 0.00 0.00 75 1012.6
20260503175024 74 127 4.0 17.0 0.00 0.00 0.00 72 1012.4
20260503174524 74 129 5.0 17.0 0.00 0.00 0.00 72 1012.4
20260503174003 75 130 4.0 12.0 0.00 0.00 0.00 71 1012.3
20260503173503 75 135 6.0 14.0 0.00 0.00 0.00 71 1012.2
20260503173003 75 134 6.0 14.0 0.00 0.00 0.00 69 1012.2
20260503172504 75 133 6.0 14.0 0.00 0.00 0.00 69 1012.0
20260503172004 75 134 5.0 13.0 0.00 0.00 0.00 69 1012.0
20260503171503 76 134 6.0 12.0 0.00 0.00 0.00 69 1012.0
20260503171003 76 133 7.0 13.0 0.00 0.00 0.00 69 1012.1
20260503170504 76 132 7.0 13.0 0.00 0.00 0.00 69 1012.0
20260503151004 77 127 8.0 17.0 0.00 0.00 0.00 65 1012.5
20260503150504 77 128 8.0 17.0 0.00 0.00 0.00 65 1012.5
20260503131003 77 307 0.0 2.0 0.00 0.00 0.00 66 1014.3
20260503130524 77 329 0.0 2.0 0.00 0.00 0.00 66 1014.4
20260503081524 65 0 0.0 0.0 0.00 0.00 0.00 77 1017.4
20260503081003 65 0 0.0 0.0 0.00 0.00 0.00 77 1017.3
20260503080503 65 0 0.0 0.0 0.00 0.00 0.00 77 1017.2
20260503072504 63 0 0.0 0.0 0.00 0.00 0.00 75 1017.2
20260503072004 63 0 0.0 0.0 0.00 0.00 0.00 77 1017.3
20260503071504 63 0 0.0 0.0 0.00 0.00 0.00 77 1017.2
20260503071003 63 306 0.0 2.0 0.00 0.00 0.00 77 1017.2
20260503070525 63 306 0.0 2.0 0.00 0.00 0.00 77 1017.2